| time (UTC) | temp F | wind direction | speed knots | gust knots | rain 1hr in | rain 24hr in | rain mn in | humidity % | barometer mb |
| 20260504070108 | 50 | 207 | 2.6 | 2.6 | 0.00 | 0.00 | 0.00 | 56 | 1008.5 |
| 20260504050456 | 51 | 198 | 1.7 | 1.7 | 0.00 | 0.00 | 0.00 | 56 | 1008.8 |
| 20260504045953 | 51 | 206 | 1.7 | 1.7 | 0.00 | 0.00 | 0.00 | 55 | 1008.8 |
| 20260504045449 | 52 | 203 | 1.7 | 1.7 | 0.00 | 0.00 | 0.00 | 55 | 1008.8 |
| 20260504044946 | 52 | 200 | 0.9 | 1.7 | 0.00 | 0.00 | 0.00 | 55 | 1008.8 |
| 20260504044443 | 52 | 211 | 1.7 | 1.7 | 0.00 | 0.00 | 0.00 | 55 | 1009.0 |
| 20260504043940 | 51 | 220 | 1.7 | 1.7 | 0.00 | 0.00 | 0.00 | 56 | 1008.7 |
| 20260504043437 | 52 | 213 | 1.7 | 1.7 | 0.00 | 0.00 | 0.00 | 57 | 1008.9 |
| 20260504042935 | 52 | 212 | 1.7 | 1.7 | 0.00 | 0.00 | 0.00 | 57 | 1008.9 |
| 20260504042431 | 52 | 200 | 1.7 | 1.7 | 0.00 | 0.00 | 0.00 | 57 | 1008.9 |
| 20260504041928 | 52 | 203 | 0.9 | 1.7 | 0.00 | 0.00 | 0.00 | 58 | 1008.8 |
| 20260504041424 | 52 | 216 | 1.7 | 1.7 | 0.00 | 0.00 | 0.00 | 56 | 1008.8 |
| 20260504040920 | 52 | 213 | 2.6 | 2.6 | 0.00 | 0.00 | 0.00 | 56 | 1008.7 |
| 20260504040418 | 52 | 203 | 1.7 | 1.7 | 0.00 | 0.00 | 0.00 | 56 | 1008.7 |
| 20260504035914 | 52 | 205 | 1.7 | 1.7 | 0.00 | 0.00 | 0.00 | 56 | 1008.9 |
| 20260504035412 | 52 | 201 | 1.7 | 1.7 | 0.00 | 0.00 | 0.00 | 57 | 1009.0 |
| 20260504034908 | 52 | 211 | 1.7 | 1.7 | 0.00 | 0.00 | 0.00 | 56 | 1009.0 |
| 20260504034406 | 52 | 212 | 1.7 | 1.7 | 0.00 | 0.00 | 0.00 | 57 | 1009.0 |
| 20260504033903 | 52 | 213 | 1.7 | 1.7 | 0.00 | 0.00 | 0.00 | 57 | 1008.9 |
| 20260504033400 | 51 | 203 | 1.7 | 1.7 | 0.00 | 0.00 | 0.00 | 58 | 1009.2 |
| 20260504032857 | 52 | 227 | 1.7 | 1.7 | 0.00 | 0.00 | 0.00 | 58 | 1009.1 |
| 20260504032354 | 52 | 204 | 0.9 | 1.7 | 0.00 | 0.00 | 0.00 | 58 | 1009.2 |
| 20260504031850 | 51 | 217 | 1.7 | 1.7 | 0.00 | 0.00 | 0.00 | 58 | 1009.1 |
| 20260504031348 | 51 | 212 | 1.7 | 1.7 | 0.00 | 0.00 | 0.00 | 59 | 1009.3 |
| 20260504030844 | 51 | 215 | 1.7 | 1.7 | 0.00 | 0.00 | 0.00 | 59 | 1009.1 |
| 20260504030342 | 51 | 211 | 1.7 | 1.7 | 0.00 | 0.00 | 0.00 | 59 | 1009.4 |
| 20260504025837 | 51 | 205 | 1.7 | 1.7 | 0.00 | 0.00 | 0.00 | 60 | 1009.3 |
| 20260504025335 | 51 | 212 | 1.7 | 2.6 | 0.00 | 0.00 | 0.00 | 60 | 1009.2 |
| 20260504024831 | 51 | 213 | 1.7 | 1.7 | 0.00 | 0.00 | 0.00 | 60 | 1009.4 |
| 20260504024327 | 51 | 226 | 1.7 | 1.7 | 0.00 | 0.00 | 0.00 | 60 | 1009.3 |
| 20260504023824 | 51 | 204 | 0.9 | 0.9 | 0.00 | 0.00 | 0.00 | 62 | 1009.5 |
| 20260504023321 | 51 | 200 | 1.7 | 1.7 | 0.00 | 0.00 | 0.00 | 62 | 1009.2 |
| 20260504022817 | 50 | 219 | 0.9 | 1.7 | 0.00 | 0.00 | 0.00 | 63 | 1009.4 |
| 20260504022314 | 50 | 194 | 0.9 | 0.9 | 0.00 | 0.00 | 0.00 | 64 | 1009.6 |
| 20260504021810 | 50 | 211 | 0.9 | 0.9 | 0.00 | 0.00 | 0.00 | 66 | 1009.7 |
| 20260504021308 | 50 | 211 | 1.7 | 1.7 | 0.00 | 0.00 | 0.00 | 65 | 1009.8 |
| 20260504020805 | 50 | 220 | 2.6 | 2.6 | 0.00 | 0.00 | 0.00 | 67 | 1009.8 |
| 20260504020302 | 49 | 227 | 2.6 | 4.3 | 0.00 | 0.00 | 0.00 | 69 | 1010.1 |
| 20260504015757 | 49 | 215 | 2.6 | 2.6 | 0.00 | 0.00 | 0.00 | 69 | 1009.9 |
| 20260504015254 | 49 | 191 | 0.9 | 1.7 | 0.00 | 0.00 | 0.00 | 71 | 1009.8 |
| 20260504014750 | 49 | 219 | 2.6 | 2.6 | 0.00 | 0.00 | 0.00 | 69 | 1010.0 |
| 20260504014246 | 50 | 262 | 4.3 | 6.1 | 0.00 | 0.00 | 0.00 | 69 | 1010.3 |
| 20260504013744 | 51 | 270 | 6.1 | 7.0 | 0.00 | 0.00 | 0.00 | 64 | 1010.3 |
| 20260504013242 | 52 | 251 | 7.0 | 7.8 | 0.00 | 0.00 | 0.00 | 60 | 1010.2 |
| 20260504012738 | 52 | 271 | 4.3 | 5.2 | 0.00 | 0.00 | 0.00 | 56 | 1009.8 |
| 20260504012236 | 52 | 177 | 3.5 | 4.3 | 0.00 | 0.00 | 0.00 | 55 | 1009.8 |
| 20260504011732 | 52 | 260 | 4.3 | 4.3 | 0.00 | 0.00 | 0.00 | 55 | 1010.0 |
| 20260504011229 | 52 | 228 | 2.6 | 4.3 | 0.00 | 0.00 | 0.00 | 54 | 1009.7 |
| 20260504010725 | 53 | 249 | 3.5 | 4.3 | 0.00 | 0.00 | 0.00 | 53 | 1009.7 |
| 20260504010221 | 53 | 223 | 2.6 | 2.6 | 0.00 | 0.00 | 0.00 | 55 | 1009.7 |
| 20260504005718 | 53 | 260 | 4.3 | 5.2 | 0.00 | 0.00 | 0.00 | 54 | 1009.4 |
| 20260504005215 | 53 | 266 | 4.3 | 5.2 | 0.00 | 0.00 | 0.00 | 54 | 1009.5 |
| 20260504004713 | 53 | 262 | 6.1 | 7.0 | 0.00 | 0.00 | 0.00 | 52 | 1009.5 |
| 20260504004210 | 53 | 275 | 7.8 | 7.8 | 0.00 | 0.00 | 0.00 | 51 | 1009.6 |
| 20260504003706 | 53 | 265 | 7.0 | 7.8 | 0.00 | 0.00 | 0.00 | 51 | 1009.4 |
| 20260504003203 | 54 | 260 | 9.6 | 9.6 | 0.00 | 0.00 | 0.00 | 50 | 1009.4 |
| 20260504002700 | 54 | 269 | 11.3 | 13.9 | 0.00 | 0.00 | 0.00 | 49 | 1009.3 |
| 20260504002157 | 54 | 261 | 10.4 | 14.8 | 0.00 | 0.00 | 0.00 | 49 | 1009.1 |
| 20260504001655 | 54 | 258 | 6.1 | 7.0 | 0.00 | 0.00 | 0.00 | 49 | 1009.1 |
| 20260504001151 | 54 | 199 | 5.2 | 6.1 | 0.00 | 0.00 | 0.00 | 48 | 1008.9 |
| 20260504000648 | 54 | 259 | 3.5 | 5.2 | 0.00 | 0.00 | 0.00 | 47 | 1009.3 |
| 20260504000145 | 54 | 254 | 3.5 | 4.3 | 0.00 | 0.00 | 0.00 | 49 | 1009.0 |
| 20260503235643 | 54 | 253 | 2.6 | 2.6 | 0.00 | 0.00 | 0.00 | 47 | 1008.7 |
| 20260503235140 | 53 | 218 | 1.7 | 1.7 | 0.00 | 0.00 | 0.00 | 47 | 1009.0 |
| 20260503234638 | 53 | 214 | 2.6 | 4.3 | 0.00 | 0.00 | 0.00 | 47 | 1008.6 |
| 20260503234136 | 53 | 209 | 2.6 | 2.6 | 0.00 | 0.00 | 0.00 | 48 | 1008.8 |
| 20260503233632 | 53 | 222 | 1.7 | 1.7 | 0.00 | 0.00 | 0.00 | 48 | 1008.5 |
| 20260503233128 | 53 | 230 | 3.5 | 4.3 | 0.00 | 0.00 | 0.00 | 48 | 1009.1 |
| 20260503232625 | 53 | 266 | 6.1 | 7.0 | 0.00 | 0.00 | 0.00 | 48 | 1009.1 |
| 20260503232122 | 53 | 252 | 4.3 | 5.2 | 0.00 | 0.00 | 0.00 | 51 | 1009.2 |
| 20260503231620 | 53 | 257 | 2.6 | 4.3 | 0.00 | 0.00 | 0.00 | 50 | 1009.4 |
| 20260503231117 | 53 | 225 | 3.5 | 4.3 | 0.00 | 0.00 | 0.00 | 50 | 1009.3 |
| 20260503230614 | 53 | 249 | 3.5 | 4.3 | 0.00 | 0.00 | 0.00 | 52 | 1009.4 |
| 20260503230111 | 53 | 228 | 4.3 | 5.2 | 0.00 | 0.00 | 0.00 | 49 | 1009.5 |
| 20260503225608 | 53 | 247 | 4.3 | 5.2 | 0.00 | 0.00 | 0.00 | 48 | 1009.4 |
| 20260503225107 | 53 | 225 | 4.3 | 5.2 | 0.00 | 0.00 | 0.00 | 49 | 1009.2 |
| 20260503224605 | 53 | 169 | 0.9 | 1.7 | 0.00 | 0.00 | 0.00 | 49 | 1009.5 |
| 20260503224103 | 53 | 235 | 2.6 | 2.6 | 0.00 | 0.00 | 0.00 | 47 | 1009.1 |
| 20260503223601 | 53 | 214 | 1.7 | 1.7 | 0.00 | 0.00 | 0.00 | 46 | 1009.2 |
| 20260503223056 | 53 | 222 | 2.6 | 4.3 | 0.00 | 0.00 | 0.00 | 49 | 1009.2 |
| 20260503222554 | 53 | 221 | 2.6 | 2.6 | 0.00 | 0.00 | 0.00 | 47 | 1009.1 |
| 20260503222052 | 54 | 237 | 2.6 | 2.6 | 0.00 | 0.00 | 0.00 | 46 | 1008.9 |
| 20260503221550 | 54 | 198 | 1.7 | 1.7 | 0.00 | 0.00 | 0.00 | 48 | 1009.1 |
| 20260503221047 | 54 | 186 | 0.9 | 1.7 | 0.00 | 0.00 | 0.00 | 46 | 1008.9 |
| 20260503220543 | 55 | 199 | 0.9 | 1.7 | 0.00 | 0.00 | 0.00 | 48 | 1009.1 |
| 20260503220040 | 54 | 196 | 0.9 | 0.9 | 0.00 | 0.00 | 0.00 | 47 | 1009.1 |
| 20260503215537 | 54 | 225 | 1.7 | 1.7 | 0.00 | 0.00 | 0.00 | 46 | 1009.0 |
| 20260503215034 | 53 | 180 | 0.9 | 0.9 | 0.00 | 0.00 | 0.00 | 48 | 1009.2 |
| 20260503214533 | 53 | 202 | 0.9 | 0.9 | 0.00 | 0.00 | 0.00 | 47 | 1009.1 |
| 20260503214029 | 53 | 254 | 3.5 | 4.3 | 0.00 | 0.00 | 0.00 | 47 | 1009.2 |
| 20260503213528 | 53 | 214 | 1.7 | 1.7 | 0.00 | 0.00 | 0.00 | 47 | 1009.3 |
| 20260503213024 | 53 | 180 | 3.5 | 4.3 | 0.00 | 0.00 | 0.00 | 47 | 1009.2 |
| 20260503212521 | 52 | 234 | 3.5 | 4.3 | 0.00 | 0.00 | 0.00 | 47 | 1009.3 |
| 20260503212018 | 52 | 206 | 4.3 | 4.3 | 0.00 | 0.00 | 0.00 | 46 | 1009.2 |
| 20260503211515 | 52 | 238 | 2.6 | 2.6 | 0.00 | 0.00 | 0.00 | 48 | 1009.1 |
| 20260503211011 | 52 | 235 | 1.7 | 1.7 | 0.00 | 0.00 | 0.00 | 50 | 1009.2 |
| 20260503210508 | 52 | 261 | 3.5 | 4.3 | 0.00 | 0.00 | 0.00 | 46 | 1009.4 |
| 20260503210004 | 53 | 250 | 4.3 | 5.2 | 0.00 | 0.00 | 0.00 | 48 | 1009.1 |
| 20260503205501 | 53 | 268 | 4.3 | 6.1 | 0.00 | 0.00 | 0.00 | 46 | 1009.3 |
| 20260503204956 | 53 | 157 | 2.6 | 2.6 | 0.00 | 0.00 | 0.00 | 48 | 1009.2 |
| 20260503204454 | 52 | 182 | 0.9 | 1.7 | 0.00 | 0.00 | 0.00 | 51 | 1009.3 |
| 20260503203950 | 52 | 257 | 3.5 | 4.3 | 0.00 | 0.00 | 0.00 | 50 | 1009.2 |
| 20260503203448 | 52 | 231 | 2.6 | 2.6 | 0.00 | 0.00 | 0.00 | 50 | 1009.5 |
| 20260503202944 | 52 | 198 | 0.9 | 0.9 | 0.00 | 0.00 | 0.00 | 53 | 1009.7 |
| 20260503202443 | 51 | 226 | 1.7 | 2.6 | 0.00 | 0.00 | 0.00 | 52 | 1009.7 |
| 20260503201941 | 51 | 230 | 1.7 | 2.6 | 0.00 | 0.00 | 0.00 | 53 | 1009.7 |
| 20260503201438 | 51 | 274 | 4.3 | 5.2 | 0.00 | 0.00 | 0.00 | 51 | 1009.8 |
| 20260503200936 | 52 | 243 | 3.5 | 4.3 | 0.00 | 0.00 | 0.00 | 51 | 1009.8 |
| 20260503200432 | 52 | 254 | 5.2 | 7.0 | 0.00 | 0.00 | 0.00 | 51 | 1009.9 |
| 20260503195928 | 51 | 262 | 4.3 | 5.2 | 0.00 | 0.00 | 0.00 | 51 | 1009.8 |
| 20260503195426 | 51 | 269 | 6.1 | 7.0 | 0.00 | 0.00 | 0.00 | 50 | 1009.9 |
| 20260503194922 | 51 | 244 | 4.3 | 5.2 | 0.00 | 0.00 | 0.00 | 51 | 1010.2 |
| 20260503194419 | 51 | 251 | 3.5 | 4.3 | 0.00 | 0.00 | 0.00 | 50 | 1010.0 |
| 20260503193915 | 51 | 249 | 5.2 | 6.1 | 0.00 | 0.00 | 0.00 | 51 | 1010.2 |
| 20260503193410 | 51 | 245 | 2.6 | 2.6 | 0.00 | 0.00 | 0.00 | 52 | 1010.2 |
| 20260503192906 | 51 | 260 | 4.3 | 4.3 | 0.00 | 0.00 | 0.00 | 50 | 1010.2 |
| 20260503192403 | 51 | 252 | 4.3 | 5.2 | 0.00 | 0.00 | 0.00 | 51 | 1010.3 |
| 20260503191859 | 51 | 242 | 3.5 | 5.2 | 0.00 | 0.00 | 0.00 | 51 | 1010.0 |
| 20260503191356 | 51 | 213 | 1.7 | 1.7 | 0.00 | 0.00 | 0.00 | 49 | 1010.2 |
| 20260503190852 | 51 | 257 | 6.1 | 7.0 | 0.00 | 0.00 | 0.00 | 49 | 1010.2 |
| 20260503190350 | 51 | 240 | 2.6 | 2.6 | 0.00 | 0.00 | 0.00 | 52 | 1010.2 |
| 20260503185846 | 51 | 289 | 3.5 | 4.3 | 0.00 | 0.00 | 0.00 | 52 | 1010.3 |
| 20260503185343 | 51 | 228 | 1.7 | 1.7 | 0.00 | 0.00 | 0.00 | 50 | 1010.4 |
| 20260503184842 | 51 | 252 | 3.5 | 4.3 | 0.00 | 0.00 | 0.00 | 50 | 1010.1 |
| 20260503184339 | 51 | 215 | 2.6 | 2.6 | 0.00 | 0.00 | 0.00 | 51 | 1010.5 |
| 20260503183835 | 51 | 244 | 4.3 | 5.2 | 0.00 | 0.00 | 0.00 | 48 | 1010.4 |
| 20260503183332 | 51 | 250 | 4.3 | 4.3 | 0.00 | 0.00 | 0.00 | 49 | 1010.3 |
| 20260503182830 | 50 | 250 | 2.6 | 4.3 | 0.00 | 0.00 | 0.00 | 53 | 1010.5 |
| 20260503182329 | 50 | 193 | 3.5 | 4.3 | 0.00 | 0.00 | 0.00 | 51 | 1010.8 |
| 20260503181825 | 51 | 243 | 3.5 | 4.3 | 0.00 | 0.00 | 0.00 | 47 | 1010.8 |
| 20260503181322 | 51 | 240 | 4.3 | 5.2 | 0.00 | 0.00 | 0.00 | 50 | 1010.9 |
| 20260503180818 | 51 | 242 | 2.6 | 2.6 | 0.00 | 0.00 | 0.00 | 47 | 1010.7 |
| 20260503180317 | 50 | 234 | 3.5 | 4.3 | 0.00 | 0.00 | 0.00 | 46 | 1010.9 |
| 20260503175813 | 50 | 196 | 2.6 | 2.6 | 0.00 | 0.00 | 0.00 | 45 | 1011.1 |
| 20260503175311 | 51 | 216 | 4.3 | 5.2 | 0.00 | 0.00 | 0.00 | 45 | 1011.2 |
| 20260503174806 | 50 | 252 | 3.5 | 4.3 | 0.00 | 0.00 | 0.00 | 49 | 1011.2 |
| 20260503174305 | 50 | 240 | 2.6 | 2.6 | 0.00 | 0.00 | 0.00 | 45 | 1011.1 |
| 20260503173800 | 50 | 242 | 4.3 | 6.1 | 0.00 | 0.00 | 0.00 | 47 | 1011.2 |
| 20260503173255 | 50 | 253 | 3.5 | 4.3 | 0.00 | 0.00 | 0.00 | 46 | 1011.3 |
| 20260503172753 | 49 | 259 | 3.5 | 4.3 | 0.00 | 0.00 | 0.00 | 49 | 1011.1 |
| 20260503172250 | 48 | 252 | 2.6 | 4.3 | 0.00 | 0.00 | 0.00 | 47 | 1011.5 |
| 20260503171746 | 49 | 201 | 2.6 | 2.6 | 0.00 | 0.00 | 0.00 | 47 | 1011.2 |
| 20260503171243 | 49 | 215 | 2.6 | 2.6 | 0.00 | 0.00 | 0.00 | 46 | 1011.2 |
| 20260503170740 | 49 | 203 | 1.7 | 1.7 | 0.00 | 0.00 | 0.00 | 50 | 1011.3 |
| 20260503170237 | 48 | 212 | 1.7 | 2.6 | 0.00 | 0.00 | 0.00 | 45 | 1011.4 |
| 20260503160159 | 46 | 163 | 1.7 | 1.7 | 0.00 | 0.00 | 0.00 | 47 | 1012.3 |
| 20260503150629 | 46 | 203 | 2.6 | 2.6 | 0.00 | 0.00 | 0.00 | 49 | 1012.7 |
| 20260503150125 | 45 | 219 | 1.7 | 1.7 | 0.00 | 0.00 | 0.00 | 50 | 1012.9 |
| 20260503131019 | 40 | 177 | 1.7 | 1.7 | 0.00 | 0.00 | 0.00 | 72 | 1013.2 |
| 20260503130517 | 40 | 253 | 2.6 | 2.6 | 0.00 | 0.00 | 0.00 | 71 | 1013.2 |
| 20260503110407 | 36 | 184 | 0.9 | 1.7 | 0.00 | 0.00 | 0.00 | 84 | 1012.7 |
| 20260503090258 | 37 | 202 | 0.9 | 0.9 | 0.00 | 0.00 | 0.00 | 83 | 1012.4 |
| 20260503081225 | 37 | 203 | 0.9 | 0.9 | 0.00 | 0.00 | 0.00 | 82 | 1012.4 |
| 20260503080721 | 37 | 207 | 0.9 | 1.7 | 0.00 | 0.00 | 0.00 | 82 | 1012.6 |
| 20260503080218 | 37 | 212 | 0.9 | 1.7 | 0.00 | 0.00 | 0.00 | 82 | 1012.3 |
| 20260503072654 | 38 | 234 | 2.6 | 2.6 | 0.00 | 0.00 | 0.00 | 81 | 1012.4 |